Weather History for Winter Haven, FL

Change the Weather History Date:

Tuesday, February 19, 2013

  Actual Average Record
Temperature  
Mean Temperature 62 °F -  
Max Temperature 75 °F 76 °F 89 °F (1975)
Min Temperature 48 °F 52 °F 32 °F (1969)
Degree Days  
Heating Degree Days 4    
Growing Degree Days 12 (Base 50)    
Moisture  
Dew Point 50 °F    
Average Humidity 67    
Maximum Humidity 93    
Minimum Humidity 41    
Precipitation  
Precipitation 0.00 in - - ()
Sea Level Pressure  
Sea Level Pressure 30.17 in    
Wind  
Wind Speed 5 mph (SW)    
Max Wind Speed 15 mph    
Max Gust Speed 23 mph    
Visibility 10 miles    
Events      
Averages and records for this station are not official NWS values.
T = Trace of Precipitation, MM = Missing Value Source: NWS Daily Summary

Daily Weather History Graph

Daily Weather History Graph

Search for Another Location

Airport:

Trip Planner

Search our weather history database for the weather conditions in past years. The results will help you decide how hot, cold, wet, or windy it might be!

Date:

Astronomy

Feb. 19, 2013 Rise Set
Actual Time 7:01 AM EST 6:20 PM EST
Civil Twilight 6:37 AM EST 6:44 PM EST
Nautical Twilight 6:09 AM EST 7:12 PM EST
Astronomical Twilight 5:42 AM EST 7:39 PM EST
Moon 1:06 PM EST (2/19) 2:16 AM EST (2/19)
Length of Visible Light 12h 07m
Length of Day
11h 19m
Waxing Gibbous, 67% of the Moon is Illuminated
Feb 19
Waxing Gibbous
Feb 25
Full
Mar 4
Last Quarter
Mar 11
New
Mar 19
First Quarter

Hourly Weather History & Observations

Time (EST) Temp. Dew Point Humidity Pressure Visibility Wind Dir Wind Speed Gust Speed Precip Events Conditions
12:53 AM 52.0 °F 46.0 °F 80% 30.24 in 10.0 mi NE 3.5 mph - N/A   Clear
1:53 AM 51.1 °F 46.0 °F 83% 30.24 in 10.0 mi Calm Calm - N/A   Mostly Cloudy
2:53 AM 50.0 °F 46.9 °F 89% 30.23 in 10.0 mi North 3.5 mph - N/A   Partly Cloudy
3:53 AM 51.1 °F 48.0 °F 89% 30.21 in 10.0 mi Calm Calm - N/A   Mostly Cloudy
4:53 AM 48.9 °F 46.0 °F 90% 30.19 in 10.0 mi East 3.5 mph - N/A   Clear
5:53 AM 48.9 °F 46.9 °F 93% 30.19 in 10.0 mi Calm Calm - N/A   Clear
6:53 AM 51.1 °F 48.0 °F 89% 30.19 in 10.0 mi ESE 3.5 mph - N/A   Partly Cloudy
7:53 AM 55.0 °F 51.1 °F 86% 30.20 in 10.0 mi Calm Calm - N/A   Clear
8:53 AM 63.0 °F 53.1 °F 70% 30.22 in 10.0 mi South 5.8 mph - N/A   Clear
9:53 AM 68.0 °F 53.1 °F 59% 30.21 in 10.0 mi South 9.2 mph - N/A   Clear
10:53 AM 73.0 °F 51.1 °F 46% 30.22 in 10.0 mi SSW 9.2 mph - N/A   Clear
11:53 AM 73.9 °F 51.1 °F 45% 30.20 in 10.0 mi SSW 13.8 mph 21.9 mph N/A   Clear
1:53 PM 75.9 °F 51.1 °F 42% 30.14 in 10.0 mi SSW 13.8 mph 23.0 mph N/A   Scattered Clouds
2:53 PM 75.9 °F 51.1 °F 42% 30.12 in 10.0 mi SW 11.5 mph - N/A   Overcast
3:53 PM 75.9 °F 51.1 °F 42% 30.10 in 10.0 mi WSW 11.5 mph - N/A   Scattered Clouds
4:53 PM 75.0 °F 50.0 °F 41% 30.10 in 10.0 mi West 15.0 mph 20.7 mph N/A   Partly Cloudy
5:53 PM 73.0 °F 50.0 °F 44% 30.11 in 10.0 mi West 10.4 mph - N/A   Clear
7:53 PM 68.0 °F 53.1 °F 59% 30.12 in 10.0 mi West 5.8 mph - N/A   Clear
8:53 PM 66.0 °F 53.1 °F 63% 30.14 in 10.0 mi West 4.6 mph - N/A   Clear
9:53 PM 64.0 °F 52.0 °F 65% 30.14 in 10.0 mi Calm Calm - N/A   Clear
10:53 PM 60.1 °F 53.1 °F 78% 30.12 in 10.0 mi Calm Calm - N/A   Clear
11:53 PM 62.1 °F 57.0 °F 84% 30.11 in 10.0 mi Calm Calm - N/A   Clear